TimePDT,TemperatureF,Dew PointF,Humidity,Sea Level PressureIn,VisibilityMPH,Wind Direction,Wind SpeedMPH,Gust SpeedMPH,PrecipitationIn,Events,Conditions,WindDirDegrees,DateUTC
12:56 AM,57.0,39.0,51,30.11,10.0,North,4.6,-,N/A,,Clear,360,2013-05-04 07:56:00
1:56 AM,57.0,39.0,51,30.11,10.0,NW,3.5,-,N/A,,Clear,320,2013-05-04 08:56:00
2:56 AM,55.0,39.0,55,30.10,10.0,Calm,Calm,-,N/A,,Clear,0,2013-05-04 09:56:00
3:56 AM,53.1,39.9,61,30.09,10.0,NNW,4.6,-,N/A,,Clear,330,2013-05-04 10:56:00
4:56 AM,53.1,41.0,64,30.09,10.0,NNW,4.6,-,N/A,,Clear,330,2013-05-04 11:56:00
5:56 AM,52.0,42.1,69,30.09,10.0,NNW,4.6,-,N/A,,Clear,330,2013-05-04 12:56:00
6:56 AM,53.1,43.0,69,30.09,10.0,NNW,4.6,-,N/A,,Clear,330,2013-05-04 13:56:00
7:56 AM,57.9,45.0,62,30.09,10.0,North,8.1,-,N/A,,Clear,350,2013-05-04 14:56:00
8:56 AM,62.1,46.0,56,30.09,10.0,North,10.4,-,N/A,,Clear,350,2013-05-04 15:56:00
9:56 AM,66.9,46.0,47,30.06,10.0,North,9.2,18.4,N/A,,Clear,10,2013-05-04 16:56:00
10:56 AM,75.0,45.0,34,30.04,10.0,NE,13.8,18.4,N/A,,Clear,40,2013-05-04 17:56:00
11:56 AM,77.0,42.1,29,30.01,10.0,North,16.1,23.0,N/A,,Clear,360,2013-05-04 18:56:00
12:56 PM,81.0,39.0,22,29.98,10.0,NNE,16.1,24.2,N/A,,Clear,30,2013-05-04 19:56:00
1:56 PM,82.9,36.0,19,29.95,10.0,NE,17.3,27.6,N/A,,Clear,40,2013-05-04 20:56:00
2:56 PM,82.9,36.0,19,29.94,10.0,NNE,18.4,26.5,N/A,,Clear,30,2013-05-04 21:56:00
3:56 PM,82.9,35.1,18,29.91,10.0,NNE,17.3,31.1,N/A,,Clear,30,2013-05-04 22:56:00
4:56 PM,82.0,34.0,18,29.89,10.0,NNE,21.9,28.8,N/A,,Clear,30,2013-05-04 23:56:00
5:56 PM,82.0,35.1,18,29.88,10.0,NNE,13.8,25.3,N/A,,Clear,30,2013-05-05 00:56:00
6:56 PM,80.1,36.0,20,29.87,10.0,NNE,13.8,20.7,N/A,,Clear,20,2013-05-05 01:56:00
7:56 PM,75.9,35.1,23,29.87,10.0,NNE,10.4,-,N/A,,Clear,30,2013-05-05 02:56:00
8:56 PM,72.0,34.0,25,29.88,10.0,NE,8.1,-,N/A,,Clear,50,2013-05-05 03:56:00
9:56 PM,68.0,35.1,30,29.89,10.0,NE,5.8,-,N/A,,Clear,50,2013-05-05 04:56:00
10:56 PM,60.1,37.9,44,29.88,10.0,North,6.9,-,N/A,,Clear,10,2013-05-05 05:56:00
11:56 PM,59.0,37.9,46,29.88,10.0,SE,3.5,-,N/A,,Clear,140,2013-05-05 06:56:00